Weather in Arzamas

Russia / Nizhny Novgorod Oblast'     55°23′11″N   43°48′56″E
temp.,
°C
wind,
m/s
gust,
m/s
humid.,
%
clouds,
%
prec.,
mm/h
press.,
hPa
HPBL,
m
26 june, sun
sun2600:00+16nnw310900 0.0 1017195
03:00+15n36950 0.0 1018119
06:00+17nne377511 0.0 1020254
09:00+21nne46480 0.0 1021912
12:00+23nne46421 0.0 10211436
15:00+24nne46385 0.0 10201603
18:00+23n35515 0.0 1020562
21:00+16n22690 0.0 102112
27 june, mon
mon2700:00+14sw00660 0.0 102111
03:00+14wsw34670 0.0 102163
06:00+17wsw37690 0.0 1020182
09:00+23wsw58620 0.1 1018599
12:00+29wnw584917 0.0 10161879
15:00+29nnw69400 0.0 10151945
18:00+27nw485630 0.0 1015915
21:00+19ne378834 1.1 1017124
28 june, tue
tue2800:00+16ne37920 0.0 1018145
03:00+12nne35892 0.0 101986
06:00+14nne37790 0.0 1020246
09:00+18nne47510 0.0 10201246
12:00+20nne56395 0.0 10211950
15:00+20nne56375 0.0 10212040
18:00+18nne35470 0.0 10221367
21:00+12ne22710 0.0 102328
29 june, wed
wed2900:00+10nne22660 0.0 102311
03:00+8n22684 0.0 102416
06:00+12nne24640 0.0 1024155
09:00+17nne24430 0.0 10241421
12:00+20nne34355 0.0 10231941
15:00+21n34355 0.0 10222177
18:00+19nnw34470 0.0 10211103
21:00+13nw34650 0.0 102157
30 june, thu
thu3000:00+11nw346583 0.0 102166
03:00+10nw367967 0.0 1020108
06:00+13nw397093 0.0 1020245
09:00+19nw594970 0.0 1019892
12:00+22nnw61040100 0.0 10171912
15:00+20nnw7114695 0.0 10161269
18:00+20n495792 0.0 10151394
21:00+15nw368140 0.0 1015103